星链-30140 (STARLINK-30140 )

导读 | 星芒AI

STARLINK-30140 是由 SpaceX 开发的星链(Starlink)卫星网络中的一颗低轨通信卫星。它属于星链计划的第三批部署卫星,旨在为全球用户提供高速互联网服务。该卫星采用先进的推进系统和激光通信技术,以提高连接稳定性和减少延迟。STARLINK-30140 于 2023 年发射,运行在约 550 公里的近地轨道上,是 SpaceX 扩展全球宽带覆盖计划的重要组成部分。

基本信息
目录编号:
57458
目录名称:
STARLINK-30140
国际标识:
2023-107B
轨道中心:
EARTH
卫星名称:
星链-30140
卫星全名:
星链-30140 (STARLINK-30140 )
卫星状态:
在轨 (已飞行874 天)
发射日期:
2023-07-28 UTC
国别 :
美国 (US)
星等 :
--
轨道信息
数据来源 国际轨道数据
星历时间: 2025-12-18T12:57:32+0800
12小时前
查看轨道信息
半长轴: 6937.203km
偏心率: 0.0001498
轨道倾角: 43.003°
近地点辐角 293.689°
升交点赤经 61.947°
平近点角 66.380°
近地点: 558.028km
远地点: 560.108km
周期: 95.838分钟
每日圈数: 15.025406
详细信息
固有亮度:
5
最大亮度:
0.3
卫星平台:
Starlink v2.0 mini
覆盖范围:
全球
运营商:
太空探索技术公司
运营商所在国:
美国
制造商(研发单位):
太空探索技术公司
制造商所在国:
美国
使用方式:
暂无
卫星简介
星链(Starlink)计划是由太空探索技术公司(SpaceX)提出的一个巨型低轨卫星互联网星座项目,计划在2019年至2024年间在太空搭建由约1.2万颗卫星组成的“星链”网络,其中1584颗将部署在地球上空550千米处的近地轨道,并从2020年开始工作。该卫星仍在工作。
2D轨道图
3D轨道图
轨道高度分析图
轨道倾角分析图
轨道综合分析图
查看轨道综合分析图